| time (UTC) | temp C | wind direction | speed KPH | gust KPH | rain 1hr cm | rain 24hr cm | rain mn cm | humidity % | barometer mb |
| 20260506030216 | 14 | 125 | 0.0 | 0.0 | 0.25 | 2.21 | 1.22 | 95 | 1010.0 |
| 20260506025715 | 14 | 359 | 0.0 | 0.0 | 0.23 | 2.18 | 1.19 | 95 | 1010.2 |
| 20260506025215 | 14 | 121 | 0.0 | 0.0 | 0.20 | 2.13 | 1.14 | 95 | 1010.3 |
| 20260506024715 | 14 | 359 | 0.0 | 0.0 | 0.20 | 2.11 | 1.12 | 95 | 1010.2 |
| 20260506024214 | 14 | 359 | 0.0 | 0.0 | 0.23 | 2.08 | 1.09 | 95 | 1010.3 |
| 20260506023714 | 14 | 120 | 0.0 | 0.0 | 0.23 | 2.03 | 1.04 | 94 | 1010.3 |
| 20260506023214 | 14 | 125 | 0.0 | 0.0 | 0.28 | 2.03 | 1.04 | 95 | 1010.4 |
| 20260506022714 | 14 | 67 | 0.0 | 0.0 | 0.30 | 2.01 | 1.02 | 95 | 1010.4 |
| 20260506022213 | 14 | 67 | 0.0 | 0.0 | 0.33 | 1.98 | 0.99 | 94 | 1010.6 |
| 20260506021713 | 15 | 64 | 0.0 | 0.0 | 0.38 | 1.96 | 0.97 | 94 | 1010.8 |
| 20260506021213 | 15 | 66 | 0.0 | 0.0 | 0.41 | 1.96 | 0.97 | 94 | 1010.9 |
| 20260506020712 | 15 | 64 | 0.0 | 0.0 | 0.46 | 1.96 | 0.97 | 94 | 1011.1 |
| 20260506020212 | 15 | 62 | 0.0 | 0.0 | 0.53 | 1.96 | 0.97 | 94 | 1010.9 |
| 20260506015712 | 15 | 54 | 0.0 | 0.0 | 0.61 | 1.96 | 0.97 | 94 | 1010.8 |
| 20260506015211 | 15 | 52 | 0.0 | 0.0 | 0.64 | 1.93 | 0.94 | 94 | 1010.8 |
| 20260506014711 | 15 | 44 | 0.0 | 0.0 | 0.69 | 1.91 | 0.91 | 94 | 1010.6 |
| 20260506014211 | 15 | 47 | 0.0 | 0.0 | 0.69 | 1.85 | 0.86 | 94 | 1011.0 |
| 20260506013711 | 15 | 47 | 0.0 | 0.0 | 0.69 | 1.80 | 0.81 | 94 | 1011.3 |
| 20260506013210 | 15 | 45 | 0.0 | 0.0 | 0.69 | 1.75 | 0.76 | 94 | 1011.5 |
| 20260506012710 | 15 | 45 | 0.0 | 0.0 | 0.66 | 1.70 | 0.71 | 94 | 1011.3 |
| 20260506012210 | 15 | 45 | 0.0 | 0.0 | 0.64 | 1.65 | 0.66 | 94 | 1011.3 |
| 20260506011710 | 15 | 47 | 0.0 | 0.0 | 0.56 | 1.57 | 0.58 | 94 | 1011.4 |
| 20260506011209 | 15 | 45 | 0.0 | 0.0 | 0.53 | 1.55 | 0.56 | 93 | 1011.6 |
| 20260506010709 | 15 | 47 | 0.0 | 0.0 | 0.48 | 1.50 | 0.51 | 93 | 1011.6 |
| 20260506010209 | 15 | 44 | 0.0 | 0.0 | 0.41 | 1.42 | 0.43 | 93 | 1011.7 |
| 20260506005708 | 15 | 45 | 0.0 | 0.0 | 0.33 | 1.35 | 0.36 | 93 | 1011.6 |
| 20260506005208 | 15 | 45 | 0.0 | 0.0 | 0.28 | 1.30 | 0.30 | 93 | 1011.6 |
| 20260506004708 | 15 | 45 | 0.0 | 0.0 | 0.20 | 1.22 | 0.23 | 93 | 1011.5 |
| 20260506004207 | 15 | 44 | 0.0 | 0.0 | 0.15 | 1.17 | 0.18 | 93 | 1011.3 |
| 20260506003707 | 15 | 45 | 0.0 | 0.0 | 0.10 | 1.12 | 0.13 | 93 | 1011.2 |
| 20260506003207 | 15 | 45 | 0.0 | 0.0 | 0.05 | 1.07 | 0.08 | 93 | 1011.2 |
| 20260506002707 | 15 | 45 | 0.0 | 0.0 | 0.03 | 1.04 | 0.05 | 93 | 1011.0 |
| 20260506002206 | 15 | 45 | 0.0 | 0.0 | 0.03 | 1.02 | 0.03 | 93 | 1011.0 |
| 20260506001706 | 15 | 45 | 0.0 | 0.0 | 0.03 | 1.02 | 0.03 | 93 | 1011.0 |
| 20260506001206 | 15 | 45 | 0.0 | 0.0 | 0.03 | 1.02 | 0.03 | 93 | 1011.0 |
| 20260506000705 | 15 | 45 | 0.0 | 0.0 | 0.03 | 1.02 | 0.03 | 93 | 1011.1 |
| 20260506000205 | 15 | 45 | 0.0 | 0.0 | 0.03 | 1.02 | 0.03 | 92 | 1011.3 |
| 20260505235705 | 15 | 45 | 0.0 | 0.0 | 0.03 | 1.02 | 0.03 | 92 | 1011.5 |
| 20260505235205 | 15 | 45 | 0.0 | 0.0 | 0.03 | 1.02 | 0.03 | 92 | 1011.6 |
| 20260505234704 | 15 | 45 | 0.0 | 0.0 | 0.03 | 1.02 | 0.03 | 92 | 1011.7 |
| 20260505234204 | 15 | 45 | 0.0 | 0.0 | 0.03 | 1.02 | 0.03 | 92 | 1011.7 |
| 20260505233704 | 15 | 41 | 0.0 | 0.0 | 0.03 | 1.02 | 0.03 | 92 | 1011.8 |
| 20260505233203 | 15 | 40 | 0.0 | 0.0 | 0.03 | 1.02 | 0.03 | 92 | 1011.7 |
| 20260505232703 | 15 | 40 | 0.0 | 0.0 | 0.03 | 1.02 | 0.03 | 92 | 1011.7 |
| 20260505232203 | 15 | 39 | 0.0 | 0.0 | 0.00 | 0.99 | 0.00 | 92 | 1011.7 |
| 20260505231703 | 15 | 39 | 0.0 | 0.0 | 0.00 | 0.99 | 0.00 | 92 | 1011.7 |
| 20260505231202 | 15 | 39 | 0.0 | 0.0 | 0.00 | 0.99 | 0.00 | 92 | 1011.7 |
| 20260505230702 | 15 | 40 | 0.0 | 0.0 | 0.00 | 0.99 | 0.00 | 91 | 1011.7 |
| 20260505230202 | 15 | 40 | 0.0 | 0.0 | 0.00 | 0.99 | 0.00 | 91 | 1011.6 |
| 20260505225701 | 15 | 39 | 0.0 | 0.0 | 0.00 | 0.99 | 0.00 | 91 | 1011.7 |
| 20260505225201 | 15 | 39 | 0.0 | 0.0 | 0.00 | 0.99 | 0.00 | 91 | 1011.8 |
| 20260505224701 | 15 | 39 | 0.0 | 0.0 | 0.00 | 0.99 | 0.00 | 91 | 1011.8 |
| 20260505224201 | 15 | 39 | 0.0 | 0.0 | 0.00 | 0.99 | 0.00 | 91 | 1011.9 |
| 20260505223700 | 15 | 39 | 0.0 | 0.0 | 0.00 | 0.99 | 0.00 | 91 | 1011.8 |
| 20260505223200 | 15 | 39 | 0.0 | 0.0 | 0.00 | 0.99 | 0.00 | 91 | 1011.9 |
| 20260505222700 | 15 | 40 | 0.0 | 0.0 | 0.00 | 0.99 | 0.00 | 91 | 1011.9 |
| 20260505222159 | 15 | 39 | 0.0 | 0.0 | 0.00 | 0.99 | 0.00 | 91 | 1012.1 |
| 20260505221659 | 15 | 39 | 0.0 | 0.0 | 0.00 | 0.99 | 0.00 | 90 | 1012.1 |
| 20260505221159 | 15 | 39 | 0.0 | 0.0 | 0.00 | 0.99 | 0.00 | 90 | 1012.2 |
| 20260505220659 | 15 | 39 | 0.0 | 0.0 | 0.00 | 0.99 | 0.00 | 90 | 1012.2 |
| 20260505220158 | 15 | 39 | 0.0 | 0.0 | 0.00 | 0.99 | 0.00 | 90 | 1012.2 |
| 20260505215658 | 15 | 39 | 0.0 | 0.0 | 0.00 | 0.99 | 0.00 | 90 | 1012.2 |
| 20260505215158 | 15 | 39 | 0.0 | 0.0 | 0.00 | 0.99 | 0.99 | 90 | 1012.2 |
| 20260505214657 | 15 | 40 | 0.0 | 0.0 | 0.00 | 0.99 | 0.99 | 90 | 1012.4 |
| 20260505214157 | 15 | 40 | 0.0 | 0.0 | 0.00 | 0.99 | 0.99 | 89 | 1012.4 |
| 20260505213657 | 15 | 40 | 0.0 | 0.0 | 0.00 | 0.99 | 0.99 | 89 | 1012.5 |
| 20260505213157 | 15 | 39 | 0.0 | 0.0 | 0.00 | 0.99 | 0.99 | 89 | 1012.5 |
| 20260505212656 | 15 | 40 | 0.0 | 0.0 | 0.00 | 0.99 | 0.99 | 89 | 1012.6 |
| 20260505212156 | 16 | 40 | 0.0 | 0.0 | 0.00 | 0.99 | 0.99 | 88 | 1012.5 |
| 20260505211656 | 16 | 40 | 0.0 | 0.0 | 0.00 | 0.99 | 0.99 | 88 | 1012.5 |
| 20260505211155 | 16 | 39 | 0.0 | 0.0 | 0.00 | 0.99 | 0.99 | 88 | 1012.5 |
| 20260505210655 | 16 | 40 | 0.0 | 0.0 | 0.00 | 0.99 | 0.99 | 88 | 1012.5 |
| 20260505210155 | 16 | 39 | 0.0 | 0.0 | 0.00 | 0.99 | 0.99 | 87 | 1012.4 |
| 20260505205655 | 16 | 40 | 0.0 | 0.0 | 0.00 | 0.99 | 0.99 | 87 | 1012.4 |
| 20260505205154 | 16 | 40 | 0.0 | 0.0 | 0.00 | 0.99 | 0.99 | 87 | 1012.5 |
| 20260505204654 | 16 | 40 | 0.0 | 0.0 | 0.00 | 0.99 | 0.99 | 87 | 1012.4 |
| 20260505204154 | 16 | 40 | 0.0 | 0.0 | 0.00 | 0.99 | 0.99 | 87 | 1012.5 |
| 20260505203653 | 16 | 39 | 0.0 | 0.0 | 0.00 | 0.99 | 0.99 | 87 | 1012.3 |
| 20260505203153 | 16 | 39 | 0.0 | 0.0 | 0.00 | 0.99 | 0.99 | 87 | 1012.3 |
| 20260505202653 | 16 | 39 | 0.0 | 0.0 | 0.00 | 0.99 | 0.99 | 87 | 1012.4 |
| 20260505202153 | 16 | 39 | 0.0 | 0.0 | 0.00 | 0.99 | 0.99 | 86 | 1012.4 |
| 20260505201652 | 16 | 39 | 0.0 | 0.0 | 0.00 | 0.99 | 0.99 | 86 | 1012.4 |
| 20260505201152 | 16 | 40 | 0.0 | 0.0 | 0.00 | 0.99 | 0.99 | 86 | 1012.3 |
| 20260505200652 | 16 | 39 | 0.0 | 0.0 | 0.00 | 0.99 | 0.99 | 86 | 1012.3 |
| 20260505200151 | 16 | 43 | 0.0 | 0.0 | 0.00 | 0.99 | 0.99 | 85 | 1012.4 |
| 20260505195651 | 17 | 45 | 0.0 | 0.0 | 0.00 | 0.99 | 0.99 | 85 | 1012.3 |
| 20260505195151 | 17 | 45 | 0.0 | 0.0 | 0.00 | 0.99 | 0.99 | 85 | 1012.3 |
| 20260505194650 | 17 | 47 | 0.0 | 0.0 | 0.00 | 0.99 | 0.99 | 85 | 1012.2 |
| 20260505194150 | 17 | 47 | 0.0 | 0.0 | 0.00 | 0.99 | 0.99 | 85 | 1012.1 |
| 20260505193650 | 17 | 48 | 0.0 | 0.0 | 0.00 | 0.99 | 0.99 | 84 | 1012.0 |
| 20260505193150 | 17 | 38 | 0.0 | 0.0 | 0.00 | 0.99 | 0.99 | 84 | 1012.0 |
| 20260505192649 | 17 | 19 | 0.0 | 0.0 | 0.00 | 0.99 | 0.99 | 84 | 1011.9 |
| 20260505192149 | 17 | 22 | 0.0 | 0.0 | 0.00 | 0.99 | 0.99 | 84 | 1011.8 |
| 20260505191649 | 17 | 22 | 0.0 | 0.0 | 0.00 | 0.99 | 0.99 | 83 | 1011.8 |
| 20260505191148 | 17 | 21 | 0.0 | 0.0 | 0.00 | 0.99 | 0.99 | 82 | 1011.8 |
| 20260505190648 | 17 | 29 | 0.0 | 0.0 | 0.00 | 0.99 | 0.99 | 82 | 1011.7 |
| 20260505190148 | 18 | 330 | 0.0 | 0.0 | 0.00 | 0.99 | 0.99 | 81 | 1011.7 |
| 20260505185648 | 18 | 329 | 0.0 | 0.0 | 0.00 | 0.99 | 0.99 | 81 | 1011.6 |
| 20260505185147 | 18 | 329 | 0.0 | 0.0 | 0.00 | 0.99 | 0.99 | 81 | 1011.6 |
| 20260505184647 | 18 | 329 | 0.0 | 0.0 | 0.00 | 0.99 | 0.99 | 81 | 1011.6 |
| 20260505184147 | 18 | 327 | 0.0 | 0.0 | 0.00 | 0.99 | 0.99 | 81 | 1011.5 |
| 20260505183647 | 18 | 323 | 0.0 | 0.0 | 0.00 | 0.99 | 0.99 | 81 | 1011.5 |
| 20260505183146 | 18 | 312 | 0.0 | 0.0 | 0.00 | 0.99 | 0.99 | 81 | 1011.5 |
| 20260505182646 | 18 | 316 | 0.0 | 0.0 | 0.00 | 0.99 | 0.99 | 81 | 1011.5 |
| 20260505182146 | 18 | 315 | 0.0 | 0.0 | 0.00 | 0.99 | 0.99 | 81 | 1011.5 |
| 20260505181645 | 18 | 347 | 0.0 | 0.0 | 0.00 | 0.99 | 0.99 | 81 | 1011.5 |
| 20260505181145 | 18 | 347 | 0.0 | 0.0 | 0.00 | 0.99 | 0.99 | 81 | 1011.5 |
| 20260505180645 | 18 | 348 | 0.0 | 0.0 | 0.00 | 0.99 | 0.99 | 81 | 1011.5 |
| 20260505180144 | 18 | 343 | 0.0 | 0.0 | 0.00 | 0.99 | 0.99 | 81 | 1011.4 |
| 20260505175644 | 18 | 335 | 0.0 | 0.0 | 0.00 | 0.99 | 0.99 | 81 | 1011.4 |
| 20260505175144 | 18 | 316 | 0.0 | 0.0 | 0.00 | 0.99 | 0.99 | 81 | 1011.3 |
| 20260505174644 | 18 | 323 | 0.0 | 0.0 | 0.00 | 0.99 | 0.99 | 80 | 1011.3 |
| 20260505174143 | 18 | 327 | 0.0 | 0.0 | 0.00 | 0.99 | 0.99 | 80 | 1011.2 |
| 20260505173643 | 18 | 326 | 0.0 | 0.0 | 0.00 | 0.99 | 0.99 | 80 | 1011.2 |
| 20260505173143 | 19 | 324 | 0.0 | 0.0 | 0.00 | 0.99 | 0.99 | 80 | 1011.2 |
| 20260505172642 | 19 | 322 | 0.0 | 0.0 | 0.00 | 0.99 | 0.99 | 79 | 1011.2 |
| 20260505172142 | 19 | 300 | 0.0 | 0.0 | 0.00 | 0.99 | 0.99 | 80 | 1011.2 |
| 20260505171642 | 19 | 290 | 0.0 | 0.0 | 0.00 | 0.99 | 0.99 | 80 | 1011.2 |
| 20260505171142 | 19 | 288 | 0.0 | 0.0 | 0.00 | 0.99 | 0.99 | 80 | 1011.1 |
| 20260505170641 | 19 | 300 | 0.0 | 0.0 | 0.00 | 0.99 | 0.99 | 80 | 1011.2 |
| 20260505170141 | 19 | 293 | 0.0 | 0.0 | 0.00 | 0.99 | 0.99 | 80 | 1011.1 |
| 20260505165641 | 18 | 292 | 0.0 | 0.0 | 0.00 | 0.99 | 0.99 | 80 | 1011.2 |
| 20260505165140 | 18 | 287 | 0.0 | 0.0 | 0.00 | 0.99 | 0.99 | 80 | 1011.2 |
| 20260505164640 | 19 | 272 | 0.0 | 0.0 | 0.00 | 0.99 | 0.99 | 80 | 1011.2 |
| 20260505164140 | 19 | 341 | 0.0 | 0.0 | 0.00 | 0.99 | 0.99 | 80 | 1011.2 |
| 20260505163640 | 19 | 345 | 0.0 | 0.0 | 0.00 | 0.99 | 0.99 | 80 | 1011.1 |
| 20260505163139 | 19 | 316 | 0.0 | 0.0 | 0.00 | 0.99 | 0.99 | 80 | 1011.1 |
| 20260505162639 | 19 | 324 | 0.0 | 0.0 | 0.00 | 0.99 | 0.99 | 80 | 1011.1 |
| 20260505162139 | 19 | 320 | 0.0 | 0.0 | 0.00 | 0.99 | 0.99 | 80 | 1011.2 |
| 20260505161638 | 19 | 280 | 0.0 | 0.0 | 0.00 | 0.99 | 0.99 | 79 | 1011.1 |
| 20260505161138 | 19 | 339 | 0.0 | 0.0 | 0.00 | 0.99 | 0.99 | 80 | 1011.1 |
| 20260505160638 | 19 | 12 | 0.0 | 0.0 | 0.00 | 0.99 | 0.99 | 80 | 1011.1 |
| 20260505160138 | 19 | 354 | 0.0 | 0.0 | 0.00 | 0.99 | 0.99 | 80 | 1011.2 |
| 20260505153136 | 20 | 354 | 0.0 | 0.0 | 0.00 | 0.99 | 0.99 | 78 | 1011.1 |
| 20260505152636 | 20 | 14 | 0.0 | 0.0 | 0.00 | 0.99 | 0.99 | 78 | 1011.1 |
| 20260505152135 | 20 | 348 | 0.0 | 0.0 | 0.00 | 0.99 | 0.99 | 77 | 1011.1 |
| 20260505151635 | 20 | 354 | 0.0 | 0.0 | 0.00 | 0.99 | 0.99 | 78 | 1011.1 |
| 20260505151135 | 20 | 326 | 0.0 | 0.0 | 0.00 | 0.99 | 0.99 | 78 | 1011.0 |
| 20260505150634 | 19 | 342 | 0.0 | 0.0 | 0.00 | 0.99 | 0.99 | 79 | 1011.1 |
| 20260505150134 | 19 | 4 | 0.0 | 0.0 | 0.00 | 0.99 | 0.99 | 79 | 1011.2 |
| 20260505140631 | 20 | 11 | 0.0 | 0.0 | 0.00 | 0.99 | 0.99 | 76 | 1011.1 |
| 20260505140131 | 20 | 354 | 0.0 | 0.0 | 0.00 | 0.99 | 0.99 | 75 | 1011.1 |
| 20260505130127 | 19 | 99 | 0.0 | 0.0 | 0.03 | 0.99 | 0.99 | 80 | 1011.5 |
| 20260505124626 | 19 | 350 | 0.0 | 0.0 | 0.03 | 0.99 | 0.99 | 85 | 1011.8 |
| 20260505124126 | 18 | 73 | 0.0 | 0.0 | 0.03 | 0.99 | 0.99 | 85 | 1011.7 |
| 20260505123626 | 18 | 69 | 0.0 | 0.0 | 0.00 | 0.97 | 0.97 | 87 | 1011.8 |
| 20260505123125 | 18 | 60 | 0.0 | 0.0 | 0.00 | 0.97 | 0.97 | 88 | 1011.8 |
| 20260505122625 | 18 | 67 | 0.0 | 0.0 | 0.00 | 0.97 | 0.97 | 88 | 1012.0 |
| 20260505122125 | 17 | 48 | 0.0 | 0.0 | 0.00 | 0.97 | 0.97 | 89 | 1012.1 |
| 20260505121625 | 17 | 27 | 0.0 | 0.0 | 0.00 | 0.97 | 0.97 | 90 | 1012.1 |
| 20260505121124 | 17 | 24 | 0.0 | 0.0 | 0.00 | 0.97 | 0.97 | 90 | 1012.2 |
| 20260505120624 | 17 | 23 | 0.0 | 0.0 | 0.00 | 0.97 | 0.97 | 91 | 1012.4 |
| 20260505120124 | 17 | 27 | 0.0 | 0.0 | 0.00 | 0.97 | 0.97 | 90 | 1012.3 |
| 20260505115623 | 17 | 28 | 0.0 | 0.0 | 0.00 | 0.97 | 0.97 | 91 | 1012.3 |
| 20260505115123 | 16 | 60 | 0.0 | 0.0 | 0.00 | 0.97 | 0.97 | 92 | 1012.3 |
| 20260505114623 | 16 | 79 | 0.0 | 0.0 | 0.00 | 0.97 | 0.97 | 92 | 1012.4 |
| 20260505114123 | 16 | 77 | 0.0 | 0.0 | 0.00 | 0.97 | 0.97 | 92 | 1012.4 |
| 20260505113622 | 16 | 98 | 0.0 | 0.0 | 0.00 | 0.97 | 0.97 | 93 | 1012.4 |
| 20260505113122 | 16 | 86 | 0.0 | 0.0 | 0.00 | 0.97 | 0.97 | 93 | 1012.4 |
| 20260505112622 | 16 | 122 | 0.0 | 0.0 | 0.00 | 0.97 | 0.97 | 93 | 1012.3 |
| 20260505112121 | 16 | 89 | 0.0 | 0.0 | 0.00 | 0.97 | 0.97 | 93 | 1012.2 |
| 20260505111621 | 16 | 90 | 0.0 | 0.0 | 0.00 | 0.97 | 0.97 | 93 | 1012.4 |
| 20260505111121 | 16 | 78 | 0.0 | 0.0 | 0.00 | 0.97 | 0.97 | 93 | 1012.4 |
| 20260505110621 | 16 | 84 | 0.0 | 0.0 | 0.00 | 0.97 | 0.97 | 93 | 1012.5 |
| 20260505110120 | 16 | 63 | 0.0 | 0.0 | 0.05 | 0.97 | 0.97 | 93 | 1012.6 |
| 20260505102118 | 15 | 54 | 0.0 | 0.0 | 0.23 | 0.97 | 0.97 | 92 | 1012.6 |
| 20260505101618 | 15 | 58 | 0.0 | 0.0 | 0.25 | 0.97 | 0.97 | 92 | 1012.7 |
| 20260505101117 | 15 | 112 | 0.0 | 0.0 | 0.25 | 0.97 | 0.97 | 92 | 1012.7 |
| 20260505100617 | 15 | 359 | 0.0 | 0.0 | 0.25 | 0.97 | 0.97 | 92 | 1012.6 |
| 20260505100117 | 15 | 68 | 0.0 | 0.0 | 0.20 | 0.91 | 0.91 | 91 | 1012.6 |
| 20260505095617 | 15 | 74 | 0.0 | 0.0 | 0.18 | 0.89 | 0.89 | 91 | 1012.8 |
| 20260505095116 | 15 | 120 | 0.0 | 0.0 | 0.10 | 0.81 | 0.81 | 91 | 1012.9 |
| 20260505094616 | 15 | 111 | 0.0 | 0.0 | 0.05 | 0.76 | 0.76 | 91 | 1012.9 |
| 20260505094116 | 15 | 80 | 0.0 | 0.0 | 0.03 | 0.74 | 0.74 | 91 | 1012.7 |
| 20260505093615 | 15 | 135 | 0.0 | 0.0 | 0.03 | 0.74 | 0.74 | 90 | 1012.7 |
| 20260505093115 | 15 | 81 | 0.0 | 0.0 | 0.03 | 0.74 | 0.74 | 90 | 1012.7 |
| 20260505092615 | 15 | 93 | 0.0 | 0.0 | 0.03 | 0.74 | 0.74 | 91 | 1012.6 |
| 20260505092115 | 15 | 85 | 0.0 | 0.0 | 0.03 | 0.74 | 0.74 | 90 | 1012.5 |
| 20260505091614 | 15 | 68 | 0.0 | 0.0 | 0.00 | 0.71 | 0.71 | 91 | 1012.5 |
| 20260505091114 | 15 | 343 | 0.0 | 0.0 | 0.00 | 0.71 | 0.71 | 91 | 1012.7 |
| 20260505090614 | 15 | 359 | 0.0 | 0.0 | 0.00 | 0.71 | 0.71 | 91 | 1012.9 |
| 20260505090113 | 15 | 276 | 0.0 | 0.0 | 0.00 | 0.71 | 0.71 | 91 | 1013.1 |
| 20260505085613 | 15 | 277 | 0.0 | 0.0 | 0.00 | 0.71 | 0.71 | 91 | 1012.9 |
| 20260505085113 | 15 | 359 | 0.0 | 0.0 | 0.00 | 0.71 | 0.71 | 91 | 1013.2 |
| 20260505084613 | 15 | 275 | 0.0 | 0.0 | 0.00 | 0.71 | 0.71 | 91 | 1013.3 |
| 20260505084112 | 15 | 148 | 0.0 | 0.0 | 0.00 | 0.71 | 0.71 | 91 | 1013.2 |
| 20260505083612 | 15 | 359 | 0.0 | 0.0 | 0.00 | 0.71 | 0.71 | 91 | 1013.1 |
| 20260505083112 | 15 | 143 | 0.0 | 0.0 | 0.00 | 0.71 | 0.71 | 91 | 1013.0 |
| 20260505082611 | 15 | 145 | 0.0 | 0.0 | 0.00 | 0.71 | 0.71 | 91 | 1012.9 |
| 20260505082111 | 15 | 145 | 0.0 | 0.0 | 0.00 | 0.71 | 0.71 | 92 | 1012.8 |
| 20260505081611 | 15 | 148 | 0.0 | 0.0 | 0.00 | 0.71 | 0.71 | 92 | 1012.7 |
| 20260505081110 | 15 | 142 | 0.0 | 0.0 | 0.00 | 0.71 | 0.71 | 91 | 1012.7 |
| 20260505080610 | 15 | 146 | 0.0 | 0.0 | 0.00 | 0.71 | 0.71 | 92 | 1012.5 |
| 20260505080110 | 14 | 144 | 0.0 | 0.0 | 0.00 | 0.71 | 0.71 | 92 | 1012.6 |
| 20260505075610 | 14 | 359 | 0.0 | 0.0 | 0.00 | 0.71 | 0.71 | 91 | 1012.7 |
| 20260505075109 | 14 | 154 | 0.0 | 0.0 | 0.03 | 0.71 | 0.71 | 91 | 1012.7 |
| 20260505074609 | 14 | 359 | 0.0 | 0.0 | 0.05 | 0.71 | 0.71 | 91 | 1012.7 |
| 20260505074109 | 13 | 154 | 0.0 | 0.0 | 0.08 | 0.71 | 0.71 | 91 | 1012.7 |
| 20260505073609 | 13 | 359 | 0.0 | 0.0 | 0.13 | 0.71 | 0.71 | 90 | 1012.8 |
| 20260505073108 | 13 | 154 | 0.0 | 0.0 | 0.18 | 0.71 | 0.71 | 90 | 1012.8 |
| 20260505072608 | 13 | 359 | 0.0 | 0.0 | 0.25 | 0.71 | 0.71 | 90 | 1012.9 |
| 20260505072108 | 13 | 155 | 0.0 | 0.0 | 0.30 | 0.71 | 0.71 | 90 | 1012.9 |
| 20260505071607 | 13 | 359 | 0.0 | 0.0 | 0.41 | 0.71 | 0.71 | 90 | 1012.9 |
| 20260505071107 | 13 | 152 | 0.0 | 0.0 | 0.48 | 0.71 | 0.71 | 90 | 1012.9 |
| 20260505070607 | 13 | 152 | 0.0 | 0.0 | 0.56 | 0.71 | 0.71 | 89 | 1013.0 |
| 20260505070106 | 13 | 151 | 0.0 | 0.0 | 0.61 | 0.71 | 0.71 | 89 | 1013.0 |
| 20260505065606 | 13 | 359 | 0.0 | 0.0 | 0.66 | 0.71 | 0.71 | 89 | 1012.9 |
| 20260505065106 | 13 | 155 | 0.0 | 0.0 | 0.66 | 0.69 | 0.69 | 89 | 1012.9 |
| 20260505064606 | 13 | 157 | 0.0 | 0.0 | 0.66 | 0.66 | 0.66 | 88 | 1013.2 |
| 20260505064106 | 13 | 152 | 0.0 | 0.0 | 0.64 | 0.64 | 0.64 | 88 | 1013.1 |
| 20260505063605 | 13 | 359 | 0.0 | 0.0 | 0.58 | 0.58 | 0.58 | 87 | 1013.0 |
| 20260505063105 | 14 | 157 | 0.0 | 0.0 | 0.53 | 0.53 | 0.53 | 86 | 1013.1 |
| 20260505062604 | 14 | 154 | 0.0 | 0.0 | 0.46 | 0.46 | 0.46 | 85 | 1013.2 |
| 20260505062104 | 14 | 159 | 0.0 | 0.0 | 0.41 | 0.41 | 0.41 | 85 | 1013.3 |
| 20260505061604 | 14 | 158 | 0.0 | 0.0 | 0.30 | 0.30 | 0.30 | 83 | 1013.3 |
| 20260505061104 | 15 | 157 | 0.0 | 0.0 | 0.23 | 0.23 | 0.23 | 83 | 1013.4 |
| 20260505060603 | 15 | 157 | 0.0 | 0.0 | 0.15 | 0.15 | 0.15 | 82 | 1013.3 |
| 20260505060103 | 15 | 199 | 0.0 | 0.0 | 0.10 | 0.10 | 0.10 | 81 | 1013.3 |
| 20260505055603 | 15 | 210 | 0.0 | 0.0 | 0.05 | 0.05 | 0.05 | 80 | 1013.2 |
| 20260505055102 | 15 | 210 | 0.0 | 0.0 | 0.03 | 0.03 | 0.03 | 78 | 1013.0 |
| 20260505054602 | 15 | 256 | 0.0 | 0.0 | 0.00 | 0.00 | 0.00 | 77 | 1012.8 |
| 20260505054102 | 15 | 198 | 0.0 | 0.0 | 0.00 | 0.00 | 0.00 | 76 | 1012.8 |
| 20260505053602 | 15 | 212 | 0.0 | 0.0 | 0.00 | 0.00 | 0.00 | 76 | 1012.7 |
| 20260505053101 | 15 | 233 | 0.0 | 0.0 | 0.00 | 0.00 | 0.00 | 75 | 1012.6 |
| 20260505052601 | 15 | 235 | 0.0 | 0.0 | 0.00 | 0.00 | 0.00 | 75 | 1012.6 |
| 20260505052101 | 15 | 213 | 0.0 | 0.0 | 0.00 | 0.00 | 0.00 | 75 | 1012.6 |
| 20260505051600 | 15 | 212 | 0.0 | 0.0 | 0.00 | 0.00 | 0.00 | 75 | 1012.7 |
| 20260505051100 | 15 | 210 | 0.0 | 0.0 | 0.00 | 0.00 | 0.00 | 75 | 1012.6 |
| 20260505050600 | 15 | 223 | 0.0 | 0.0 | 0.00 | 0.00 | 0.00 | 75 | 1012.6 |
| 20260505041557 | 16 | 162 | 0.0 | 0.0 | 0.00 | 0.00 | 0.00 | 68 | 1012.5 |
| 20260505041057 | 16 | 232 | 0.0 | 0.0 | 0.00 | 0.00 | 0.00 | 67 | 1012.5 |
| 20260505040556 | 16 | 203 | 0.0 | 0.0 | 0.00 | 0.00 | 0.00 | 66 | 1012.4 |
| 20260505040056 | 16 | 204 | 0.0 | 0.0 | 0.00 | 0.00 | 0.00 | 65 | 1012.4 |
| 20260505035556 | 16 | 154 | 0.0 | 0.0 | 0.00 | 0.00 | 0.00 | 64 | 1012.5 |
| 20260505035056 | 16 | 170 | 0.0 | 0.0 | 0.00 | 0.00 | 0.00 | 64 | 1012.5 |
| 20260505034555 | 16 | 233 | 0.0 | 0.0 | 0.00 | 0.00 | 0.00 | 63 | 1012.5 |
| 20260505034055 | 17 | 251 | 0.0 | 0.0 | 0.00 | 0.00 | 0.00 | 63 | 1012.6 |
| 20260505033555 | 17 | 209 | 0.0 | 0.0 | 0.00 | 0.00 | 0.00 | 62 | 1012.6 |
| 20260505033054 | 17 | 211 | 0.0 | 0.0 | 0.00 | 0.00 | 0.00 | 61 | 1012.6 |
| 20260505032554 | 17 | 236 | 0.0 | 0.0 | 0.00 | 0.00 | 0.00 | 61 | 1012.7 |
| 20260505032054 | 17 | 218 | 0.0 | 0.0 | 0.00 | 0.00 | 0.00 | 61 | 1012.8 |
| 20260505031554 | 17 | 213 | 0.0 | 0.0 | 0.00 | 0.00 | 0.00 | 60 | 1012.8 |
| 20260505031053 | 17 | 224 | 0.0 | 0.0 | 0.00 | 0.00 | 0.00 | 60 | 1012.9 |
| 20260505030553 | 17 | 228 | 0.0 | 0.0 | 0.00 | 0.00 | 0.00 | 60 | 1012.8 |